Harlan, IA

1:59 AM CDT on May 28, 2017 (GMT -0500)
Harlan Municipal

Weather History for KHNR - November, 2013

Change the Weather History Date:

Monday, November 4, 2013

  Actual Average Record
Temperature  
Mean Temperature 42 °F -  
Max Temperature 53 °F 50 °F 75 °F (2016)
Min Temperature 30 °F 30 °F 0 °F (1991)
Degree Days  
Heating Degree Days 24    
Moisture  
Dew Point 38 °F    
Average Humidity 73    
Maximum Humidity 100    
Minimum Humidity 54    
Precipitation  
Precipitation 0.00 in - - ()
Sea Level Pressure  
Sea Level Pressure 29.99 in    
Wind  
Wind Speed 12 mph (South)    
Max Wind Speed 17 mph    
Max Gust Speed 24 mph    
Visibility 10 miles    
Events      
Averages and records for this station are not official NWS values.
T = Trace of Precipitation, MM = Missing Value Source: NWS Daily Summary

Daily Weather History Graph

Daily Weather History Graph

Search for Another Location

Airport or City:

Trip Planner

Search our weather history database for the weather conditions in past years. The results will help you decide how hot, cold, wet, or windy it might be!

Date:

Astronomy

Nov. 04, 2013 Rise Set
Actual Time 6:57 AM CST 5:12 PM CST
Civil Twilight 6:28 AM CST 5:41 PM CST
Nautical Twilight 5:55 AM CST 6:14 PM CST
Astronomical Twilight 5:22 AM CST 6:46 PM CST
Moon 8:09 AM CST (11/4) 6:16 PM CST (11/4)
Length of Visible Light 11h 13m
Length of Day
10h 14m
New Moon, 2% of the Moon is Illuminated
Nov 4
New Moon
Nov 9
First Quarter
Nov 17
Full
Nov 25
Last Quarter
Dec 2
New

Hourly Weather History & Observations

Time (CST) Temp. Windchill Dew Point Humidity Pressure Visibility Wind Dir Wind Speed Gust Speed Precip Events Conditions
12:15 AM 51.8 °F - 39.2 °F 62% 29.86 in 10.0 mi SSE 16.1 mph 23.0 mph N/A   Overcast
12:35 AM 51.8 °F - 39.2 °F 62% 29.86 in 10.0 mi South 15.0 mph 21.9 mph N/A   Overcast
12:55 AM 51.8 °F - 39.2 °F 62% 29.86 in 10.0 mi South 15.0 mph - N/A   Overcast
1:15 AM 51.8 °F - 39.2 °F 62% 29.86 in 10.0 mi South 13.8 mph 19.6 mph N/A   Overcast
1:35 AM 51.8 °F - 39.2 °F 62% 29.86 in 10.0 mi South 16.1 mph 23.0 mph N/A   Overcast
1:55 AM 51.8 °F - 39.2 °F 62% 29.86 in 10.0 mi South 15.0 mph 23.0 mph N/A   Overcast
2:15 AM 51.8 °F - 39.2 °F 62% 29.86 in 10.0 mi South 17.3 mph 23.0 mph N/A   Overcast
2:35 AM 51.8 °F - 39.2 °F 62% 29.86 in 10.0 mi South 12.7 mph 19.6 mph N/A   Overcast
2:55 AM 51.8 °F - 39.2 °F 62% 29.85 in 10.0 mi South 16.1 mph - N/A   Overcast
3:15 AM 50.0 °F - 41.0 °F 71% 29.85 in 10.0 mi SSE 13.8 mph - N/A   Overcast
3:35 AM 50.0 °F - 41.0 °F 71% 29.85 in 10.0 mi South 13.8 mph - N/A   Overcast
3:55 AM 50.0 °F - 39.2 °F 66% 29.84 in 10.0 mi South 12.7 mph 19.6 mph N/A   Mostly Cloudy
4:15 AM 50.0 °F - 39.2 °F 66% 29.84 in 10.0 mi South 12.7 mph 18.4 mph N/A   Mostly Cloudy
4:35 AM 50.0 °F - 39.2 °F 66% 29.85 in 10.0 mi SSE 11.5 mph - N/A   Mostly Cloudy
4:55 AM 48.2 °F - 39.2 °F 71% 29.85 in 10.0 mi SSE 12.7 mph 18.4 mph N/A   Partly Cloudy
5:15 AM 48.2 °F - 39.2 °F 71% 29.85 in 10.0 mi SSE 12.7 mph 19.6 mph N/A   Clear
5:35 AM 48.2 °F - 41.0 °F 76% 29.85 in 10.0 mi South 11.5 mph - N/A   Scattered Clouds
5:55 AM 48.2 °F - 41.0 °F 76% 29.85 in 10.0 mi South 12.7 mph - N/A   Scattered Clouds
6:15 AM 48.2 °F - 41.0 °F 76% 29.85 in 10.0 mi South 12.7 mph - N/A   Mostly Cloudy
6:35 AM 48.2 °F - 41.0 °F 76% 29.85 in 10.0 mi South 12.7 mph - N/A   Scattered Clouds
6:55 AM 48.2 °F - 42.8 °F 82% 29.86 in 10.0 mi South 13.8 mph - N/A   Mostly Cloudy
7:15 AM 48.2 °F - 42.8 °F 82% 29.87 in 10.0 mi South 13.8 mph - N/A   Overcast
7:35 AM 48.2 °F - 42.8 °F 82% 29.88 in 10.0 mi South 15.0 mph - N/A   Overcast
7:55 AM 48.2 °F - 42.8 °F 82% 29.87 in 10.0 mi South 13.8 mph - N/A   Overcast
8:15 AM 50.0 °F - 42.8 °F 76% 29.88 in 10.0 mi South 16.1 mph - N/A   Overcast
8:35 AM 50.0 °F - 42.8 °F 76% 29.89 in 10.0 mi South 13.8 mph 23.0 mph N/A   Overcast
8:55 AM 50.0 °F - 42.8 °F 76% 29.90 in 10.0 mi South 17.3 mph 23.0 mph N/A   Overcast
9:15 AM 50.0 °F - 42.8 °F 76% 29.91 in 10.0 mi South 11.5 mph 20.7 mph N/A   Overcast
9:35 AM 50.0 °F - 42.8 °F 76% 29.92 in 10.0 mi South 11.5 mph 23.0 mph N/A   Overcast
9:55 AM 50.0 °F - 42.8 °F 76% 29.93 in 10.0 mi SSW 13.8 mph 21.9 mph N/A   Overcast
10:15 AM 50.0 °F - 42.8 °F 76% 29.94 in 10.0 mi SSW 13.8 mph - N/A   Overcast
10:35 AM 50.0 °F - 44.6 °F 82% 29.95 in 10.0 mi SSW 11.5 mph - N/A   Overcast
10:55 AM 51.8 °F - 44.6 °F 76% 29.96 in 10.0 mi SSW 11.5 mph - N/A   Overcast
11:15 AM 51.8 °F - 44.6 °F 76% 29.96 in 10.0 mi SSW 10.4 mph 17.3 mph N/A   Overcast
11:35 AM 51.8 °F - 44.6 °F 76% 29.96 in 10.0 mi SSW 11.5 mph - N/A   Overcast
11:55 AM 53.6 °F - 44.6 °F 72% 29.97 in 10.0 mi SW 13.8 mph - N/A   Overcast
12:15 PM 51.8 °F - 42.8 °F 71% 29.98 in 10.0 mi West 17.3 mph - N/A   Overcast
12:35 PM 50.0 °F - 41.0 °F 71% 29.99 in 10.0 mi NW 13.8 mph - N/A   Overcast
12:55 PM 51.8 °F - 41.0 °F 67% 29.99 in 10.0 mi NNW 13.8 mph - N/A   Overcast
1:15 PM 53.6 °F - 39.2 °F 58% 29.99 in 10.0 mi NNW 15.0 mph - N/A   Overcast
1:35 PM 53.6 °F - 37.4 °F 54% 30.00 in 10.0 mi North 17.3 mph - N/A   Mostly Cloudy
1:55 PM 53.6 °F - 37.4 °F 54% 30.00 in 10.0 mi North 15.0 mph - N/A   Partly Cloudy
2:15 PM 53.6 °F - 37.4 °F 54% 30.02 in 10.0 mi North 15.0 mph 24.2 mph N/A   Scattered Clouds
2:35 PM 53.6 °F - 37.4 °F 54% 30.03 in 10.0 mi North 9.2 mph 20.7 mph N/A   Partly Cloudy
2:55 PM 53.6 °F - 37.4 °F 54% 30.03 in 10.0 mi North 10.4 mph 18.4 mph N/A   Clear
3:15 PM 53.6 °F - 37.4 °F 54% 30.04 in 10.0 mi North 12.7 mph - N/A   Partly Cloudy
3:35 PM 53.6 °F - 37.4 °F 54% 30.05 in 10.0 mi North 10.4 mph 19.6 mph N/A   Scattered Clouds
3:55 PM 53.6 °F - 37.4 °F 54% 30.05 in 10.0 mi NNW 6.9 mph - N/A   Scattered Clouds
4:15 PM 53.6 °F - 37.4 °F 54% 30.06 in 10.0 mi NE 6.9 mph - N/A   Scattered Clouds
4:35 PM 51.8 °F - 37.4 °F 58% 30.06 in 9.0 mi NNE 4.6 mph - N/A   Clear
4:55 PM 50.0 °F - 37.4 °F 62% 30.07 in 10.0 mi NNE 3.5 mph - N/A   Clear
5:15 PM 46.4 °F 44.3 °F 35.6 °F 66% 30.07 in 10.0 mi North 4.6 mph - N/A   Clear
5:35 PM 41.0 °F 39.0 °F 33.8 °F 76% 30.09 in 10.0 mi North 3.5 mph - N/A   Clear
5:55 PM 41.0 °F 39.0 °F 33.8 °F 76% 30.09 in 10.0 mi North 3.5 mph - N/A   Clear
6:15 PM 42.8 °F - 33.8 °F 70% 30.11 in 10.0 mi Calm Calm - N/A   Clear
6:35 PM 39.2 °F - 33.8 °F 81% 30.12 in 10.0 mi Calm Calm - N/A   Clear
6:55 PM 41.0 °F - 32.0 °F 70% 30.13 in 10.0 mi Calm Calm - N/A   Clear
7:15 PM 37.4 °F - 32.0 °F 81% 30.14 in 10.0 mi Calm Calm - N/A   Clear
7:35 PM 35.6 °F - 30.2 °F 81% 30.14 in 10.0 mi Calm Calm - N/A   Clear
7:55 PM 35.6 °F - 32.0 °F 87% 30.14 in 10.0 mi Calm Calm - N/A   Clear
8:15 PM 33.8 °F - 30.2 °F 87% 30.14 in 10.0 mi Calm Calm - N/A   Clear
8:35 PM 32.0 °F - 30.2 °F 93% 30.15 in 10.0 mi Calm Calm - N/A   Clear
8:55 PM 33.8 °F - 30.2 °F 87% 30.16 in 10.0 mi Calm Calm - N/A   Clear
9:15 PM 32.0 °F - 30.2 °F 93% 30.17 in 9.0 mi Calm Calm - N/A   Clear
9:35 PM 32.0 °F - 30.2 °F 93% 30.17 in 10.0 mi Calm Calm - N/A   Clear
9:55 PM 32.0 °F - 30.2 °F 93% 30.18 in 10.0 mi Calm Calm - N/A   Clear
10:15 PM 32.0 °F - 30.2 °F 93% 30.18 in 10.0 mi Calm Calm - N/A   Clear
10:35 PM 30.2 °F 25.4 °F 28.4 °F 93% 30.18 in 10.0 mi NNE 4.6 mph - N/A   Clear
10:55 PM 32.0 °F 28.7 °F 30.2 °F 93% 30.18 in 9.0 mi North 3.5 mph - N/A   Clear
11:15 PM 32.0 °F - 30.2 °F 93% 30.18 in 10.0 mi Calm Calm - N/A   Clear
11:35 PM 30.2 °F 24.3 °F 28.4 °F 93% 30.18 in 10.0 mi North 5.8 mph - N/A   Clear
11:55 PM 30.2 °F - 30.2 °F 100% 30.18 in 10.0 mi Calm Calm - N/A   Clear